Location: Lane
(33.5226°N, 79.8788°W)
Time: 07:30:24
(UTC+00:00)

SR - Pass Details

Date: 01 October 2022
Orbit: 577 x 874 km, 66.7° (Epoch: 01 December)

Event Time Altitude Azimuth Distance (km) Brightness Sun altitude
Rises 01:29:11 0° 184° (S) 3,358 - -30.5°
Reaches altitude 10° 01:31:44 10° 176° (S) 2,459 - -31.0°
Maximum altitude 01:37:01 39° 109° (ESE) 1,269 - -32.0°
Drops below altitude 10° 01:42:28 10° 42° (NE) 2,528 - -33.1°
Sets 01:45:06 0° 35° (NE) 3,463 - -33.6°
